This is the latest recevied weather packets stored in our database for station/object KA8DUX-2. If no packets are shown the sender has not sent any weather packets the latest 10 day(s).
| Time | Temp. | Humidity | Pressure | Rain* | Wind** | Luminosity | Snow |
|---|---|---|---|---|---|---|---|
| 1778277538 | 17.78° C | 28% | 1006 hPa | 0 mm | - | 98 W/m² | - |
| 1778277235 | 18.33° C | 26% | 1005.8 hPa | 0 mm | - | 136 W/m² | - |
| 1778276932 | 17.78° C | 30% | 1005.8 hPa | 0 mm | - | 119 W/m² | - |
| 1778276630 | 18.33° C | 28% | 1005.9 hPa | 0 mm | - | 80 W/m² | - |
| 1778276326 | 18.89° C | 28% | 1006 hPa | 0 mm | - | 94 W/m² | - |
| 1778276023 | 18.89° C | 27% | 1005.9 hPa | 0 mm | - | 137 W/m² | - |
| 1778275718 | 18.33° C | 30% | 1006.2 hPa | 0 mm | - | 156 W/m² | - |
| 1778275416 | 17.78° C | 28% | 1006.2 hPa | 0 mm | - | 182 W/m² | - |
| 1778275111 | 18.33° C | 28% | 1006.2 hPa | 0 mm | - | 285 W/m² | - |
| 1778274807 | 18.89° C | 26% | 1006 hPa | 0 mm | - | 229 W/m² | - |
| 1778274505 | 18.33° C | 27% | 1006 hPa | 0 mm | - | 317 W/m² | - |
| 1778274201 | 18.33° C | 28% | 1006.2 hPa | 0 mm | - | 354 W/m² | - |
| 1778273898 | 18.89° C | 27% | 1006.3 hPa | 0 mm | - | 372 W/m² | - |
| 1778273595 | 18.89° C | 27% | 1006.2 hPa | 0 mm | - | 439 W/m² | - |
| 1778273291 | 18.89° C | 26% | 1006.5 hPa | 0 mm | - | 524 W/m² | - |
| 1778272988 | 18.89° C | 26% | 1006.4 hPa | 0 mm | - | 527 W/m² | - |
| 1778272684 | 18.89° C | 26% | 1006.4 hPa | 0 mm | - | 542 W/m² | - |
| 1778272380 | 18.89° C | 29% | 1006.7 hPa | 0 mm | - | 558 W/m² | - |
| 1778272076 | 19.44° C | 28% | 1006.7 hPa | 0 mm | - | 605 W/m² | - |
| 1778271774 | 19.44° C | 27% | 1006.7 hPa | 0 mm | - | 625 W/m² | - |
| 1778271471 | 18.89° C | 27% | 1006.8 hPa | 0 mm | - | 625 W/m² | - |
| 1778271167 | 18.89° C | 27% | 1006.7 hPa | 0 mm | - | 605 W/m² | - |
| 1778270864 | 18.89° C | 26% | 1006.7 hPa | 0 mm | - | 628 W/m² | - |
| 1778270560 | 19.44° C | 27% | 1006.9 hPa | 0 mm | - | 652 W/m² | - |
| 1778270256 | 20° C | 26% | 1006.8 hPa | 0 mm | - | 661 W/m² | - |
* Rain latest hour (hover to see other rain measurements)
** Current wind speed in m/s (hover to see current wind gust speed)